Regional Weather Roundup
Issued by NWS

Home | Current Version | Previous Version | Graphics & Text | Print | Product List | Glossary On
Versions: 1 2 3 4 5 6 7 8 9 10 11 12 13 14 15 16 17 18 19 20 21 22 23 24 25 26 27 28 29 30 31 32 33 34 35 36 37 38 39 40 41 42 43 44 45 46 47 48 49 50
000
ASUS43 KOAX 281410
RWRNE

WEATHER ROUNDUP FOR NEBRASKA
NATIONAL WEATHER SERVICE OMAHA NE
900 AM CDT SUN AUG 28 2016

NOTES: SATELLITE DATA IS BEING USED TO AUGMENT CLOUD COVER ABOVE
       12000 FEET.
       "FAIR" INDICATES FEW OR NO CLOUDS BELOW 12,000 FEET WITH NO
       SIGNIFICANT WEATHER AND/OR OBSTRUCTIONS TO VISIBILITY.

  * THESE STATIONS DO NOT REPORT WEATHER SUCH AS RAIN...SNOW OR FOG.

NEZ001>004-019>022-054>056-281500-
NEBRASKA PANHANDLE

CITY           SKY/WX    TMP DP  RH WIND       PRES   REMARKS
SCOTTSBLUFF    SUNNY     62  57  83 E3        30.09R
ALLIANCE       SUNNY     61  58  90 S3        30.07R
CHADRON        SUNNY     69  48  47 S7        30.02R
KIMBALL        SUNNY     60  50  69 SW8       30.15S
SIDNEY         SUNNY     62  56  80 S10       30.13R
$$

NEZ057>060-069>072-079>082-281500-
SOUTHWEST NEBRASKA

CITY           SKY/WX    TMP DP  RH WIND       PRES   REMARKS
NORTH PLATTE   SUNNY     69  64  84 S8        30.08R
IMPERIAL       SUNNY     66  60  81 SW6       30.10S
LEXINGTON      CLOUDY    69  65  86 SE6       30.09R
MCCOOK         PTSUNNY   67  63  87 S6        30.09S
OGALLALA       SUNNY     65  61  85 CALM      30.09R
$$

NEZ005>010-023>029-035>040-094-281500-
NORTH CENTRAL NEBRASKA

CITY           SKY/WX    TMP DP  RH WIND       PRES   REMARKS
AINSWORTH      SUNNY     70  67  89 S13       30.04S
BROKEN BOW     MOSUNNY   69  66  90 SE5       30.07R
O`NEILL        SUNNY     74  68  81 S9        30.05S
ORD            MOSUNNY   68  65  90 SE6       30.06R
THEDFORD       SUNNY     70  66  87 S8        30.07S
$$

NEZ041-046>049-061>064-073>077-083>087-281500-
SOUTH CENTRAL NEBRASKA

CITY           SKY/WX    TMP DP  RH WIND       PRES   REMARKS
GRAND ISLAND   MOSUNNY   75  68  78 S10       30.09R
AURORA         SUNNY     72  71  95 S6        30.10R
HASTINGS       MOSUNNY   72  68  87 S9        30.10R
HEBRON         MOSUNNY   74  70  86 S3        30.09S
HOLDREGE       PTSUNNY   69  66  89 S7        30.09S
KEARNEY *      CLOUDY    70  66  88 S5        30.08S
YORK           SUNNY     72  68  88 S12       30.10S
$$

NEZ011>018-030>034-042>045-281500-
NORTHEAST NEBRASKA

CITY           SKY/WX    TMP DP  RH WIND       PRES   REMARKS
NORFOLK        MOSUNNY   74  67  78 S15G22    30.07S
ALBION         PTSUNNY   68  65  91 SE6       30.09R FOG
BLAIR          SUNNY     73  70  88 S5        30.10S
FREMONT        SUNNY     73  70  88 SE8       30.10S
TEKAMAH        SUNNY     71  68  90 SE7       30.09S
WAYNE          PTSUNNY   71  69  94 S8        30.09R
$$

NEZ050>053-065>068-078-088>093-281500-
SOUTHEAST NEBRASKA

CITY           SKY/WX    TMP DP  RH WIND       PRES   REMARKS
LINCOLN        MOSUNNY   74  69  85 S5        30.10R
OMAHA EPPLEY   PTSUNNY   74  68  81 SE5       30.10R
BEATRICE       SUNNY     75  69  83 S3        30.10R
FALLS CITY     SUNNY     75  71  87 SE7       30.10R
NEBRASKA CITY  SUNNY     73  73  97 SE6       30.11R
PLATTSMOUTH    SUNNY     74  71  91 SE5       30.11R
$$

NEZ044-045-051>053-067-281500-
OMAHA AREA

CITY           SKY/WX    TMP DP  RH WIND       PRES   REMARKS
OMAHA EPPLEY   PTSUNNY   74  68  81 SE5       30.10R
BLAIR          SUNNY     73  70  88 S5        30.10S
FREMONT        SUNNY     73  70  88 SE8       30.10S
MILLARD        SUNNY     74  69  86 SE5       30.09S
OFFUTT AFB     SUNNY     72  72 100 E5        30.09R
PLATTSMOUTH    SUNNY     74  71  91 SE5       30.11R
WAHOO          FAIR      71  70  96 S5        30.10R
$$




USA.gov is the U.S. government's official web portal to all federal, state and local government web resources and services.